Albuquerque, NM

8:28 AM MST on January 22, 2018 (GMT -0700)
Albuquerque International Sunport

Weather History for KABQ - January, 2013

Change the Weather History Date:

Tuesday, January 1, 2013

  Actual Average Record
Temperature  
Mean Temperature 26 °F 35 °F  
Max Temperature 36 °F 45 °F 62 °F (1981)
Min Temperature 15 °F 26 °F 3 °F (1959)
Degree Days  
Heating Degree Days 39 30  
Month to date heating degree days 39 30  
Since 1 July heating degree days 1543 1787  
Cooling Degree Days 0 0  
Month to date cooling degree days 0 0  
Year to date cooling degree days 0 0  
Moisture  
Dew Point 14 °F    
Average Humidity 61    
Maximum Humidity 84    
Minimum Humidity 38    
Precipitation  
Precipitation 0.00 in 0.01 in 0.16 in (2000)
Month to date precipitation 0.00 0.01  
Year to date precipitation 0.00 0.01  
Snow  
Snow 0.00 in - - ()
Month to date snowfall 0.0  
Since 1 July snowfall 0.5  
Snow Depth 0.00 in    
Sea Level Pressure  
Sea Level Pressure 30.22 in    
Wind  
Wind Speed 7 mph (NNW)    
Max Wind Speed 17 mph    
Max Gust Speed 23 mph    
Visibility 10 miles    
Events      
T = Trace of Precipitation, MM = Missing Value Source: NWS Daily Summary

Daily Weather History Graph

Daily Weather History Graph

Search for Another Location

Airport or City:

Trip Planner

Search our weather history database for the weather conditions in past years. The results will help you decide how hot, cold, wet, or windy it might be!

Date:

Astronomy

Jan. 01, 2013 Rise Set
Actual Time 7:14 AM MST 5:05 PM MST
Civil Twilight 6:46 AM MST 5:34 PM MST
Nautical Twilight 6:15 AM MST 6:05 PM MST
Astronomical Twilight 5:44 AM MST 6:36 PM MST
Moon 9:28 PM MST (1/1) 9:38 AM MST (1/1)
Length of Visible Light 10h 47m
Length of Day
9h 51m
Waning Gibbous, 83% of the Moon is Illuminated
Jan 1
Waning Gibbous
Jan 4
Last Quarter
Jan 11
New
Jan 18
First Quarter
Jan 26
Full

Hourly Weather History & Observations

Time (MST) Temp. Windchill Dew Point Humidity Pressure Visibility Wind Dir Wind Speed Gust Speed Precip Events Conditions
12:52 AM 28.0 °F 21.7 °F 19.0 °F 69% 30.11 in 10.0 mi North 5.8 mph - N/A   Scattered Clouds
1:52 AM 26.1 °F 16.8 °F 18.0 °F 71% 30.12 in 10.0 mi NNE 9.2 mph - N/A   Scattered Clouds
2:52 AM 25.0 °F 17.1 °F 18.0 °F 75% 30.13 in 10.0 mi North 6.9 mph - N/A   Partly Cloudy
3:52 AM 23.0 °F 15.8 °F 17.1 °F 78% 30.17 in 10.0 mi North 5.8 mph - N/A   Scattered Clouds
4:52 AM 23.0 °F 17.0 °F 16.0 °F 74% 30.18 in 10.0 mi North 4.6 mph - N/A   Partly Cloudy
5:52 AM 19.9 °F - 15.1 °F 81% 30.21 in 10.0 mi Calm Calm - N/A   Partly Cloudy
6:52 AM 19.9 °F 14.9 °F 14.0 °F 78% 30.22 in 10.0 mi Variable 3.5 mph - N/A   Scattered Clouds
7:52 AM 21.9 °F 12.5 °F 14.0 °F 72% 30.24 in 10.0 mi NNW 8.1 mph - N/A   Scattered Clouds
8:52 AM 24.1 °F 15.2 °F 14.0 °F 65% 30.27 in 10.0 mi North 8.1 mph - N/A   Scattered Clouds
9:52 AM 26.1 °F 17.6 °F 12.9 °F 58% 30.29 in 10.0 mi North 8.1 mph - N/A   Scattered Clouds
10:52 AM 30.0 °F 26.5 °F 14.0 °F 51% 30.27 in 10.0 mi NNW 3.5 mph - N/A   Scattered Clouds
11:52 AM 32.0 °F - 14.0 °F 48% 30.21 in 10.0 mi Calm Calm - N/A   Scattered Clouds
12:52 PM 33.1 °F 26.9 °F 12.9 °F 43% 30.17 in 10.0 mi WNW 6.9 mph - N/A   Scattered Clouds
1:52 PM 35.1 °F 30.1 °F 12.0 °F 39% 30.17 in 10.0 mi West 5.8 mph 19.6 mph N/A   Scattered Clouds
2:52 PM 35.1 °F 27.4 °F 12.9 °F 40% 30.17 in 10.0 mi NNE 10.4 mph - N/A   Scattered Clouds
3:52 PM 35.1 °F 26.4 °F 12.9 °F 40% 30.20 in 10.0 mi NNW 12.7 mph 18.4 mph N/A   Scattered Clouds
4:07 PM 33.8 °F 24.8 °F 12.2 °F 41% 30.15 in 10.0 mi NNW 12.7 mph - N/A   Scattered Clouds
4:52 PM 32.0 °F 22.5 °F 12.9 °F 45% 30.23 in 10.0 mi North 12.7 mph - N/A   Partly Cloudy
5:52 PM 30.0 °F 21.7 °F 10.9 °F 45% 30.26 in 10.0 mi North 9.2 mph - N/A   Partly Cloudy
6:52 PM 28.9 °F 19.8 °F 10.9 °F 47% 30.28 in 10.0 mi NNW 10.4 mph - N/A   Partly Cloudy
7:52 PM 27.0 °F 18.7 °F 10.0 °F 49% 30.30 in 10.0 mi North 8.1 mph - N/A   Partly Cloudy
8:52 PM 26.1 °F 16.8 °F 10.9 °F 53% 30.30 in 10.0 mi North 9.2 mph - N/A   Clear
9:52 PM 25.0 °F 15.5 °F 12.0 °F 58% 30.30 in 10.0 mi North 9.2 mph - N/A   Clear
10:52 PM 24.1 °F 14.4 °F 12.0 °F 60% 30.30 in 10.0 mi North 9.2 mph - N/A   Clear
11:52 PM 23.0 °F 14.7 °F 12.0 °F 63% 30.31 in 10.0 mi NNW 6.9 mph - N/A   Clear